Tracking 19709 objects as of 17-Jun-2019
HD Live streaming from Space Station
objects crossing your sky now

SOYUZ-TMA 20


SOYUZ-TMA 20 is no longer on orbit
SOYUZ-TMA 20 is classified as:


NORAD ID: 37254
Int'l Code: 2010-067A
Perigee: N/A
Apogee: N/A
Inclination: N/A
Period: N/A
Semi major axis: N/A
RCS: N/A
Launch date: December 15, 2010
Source: Commonwealth of Independent States (former USSR) (CIS)
Launch site: TYURATAM MISSILE AND SPACE COMPLEX (TTMTR)
Decay date: 2011-05-24
aabbcc
Your satellite tracking list
Your tracking list is empty




NASA's NSSDC Master Catalog

Two Line Element Set (TLE):
1 37254U 10067A   11143.88794094 -.00011788  00000-0 -71932-4 0  9997
2 37254 051.6424 285.4308 0004980 339.0247 021.0003 15.75444507 25021
Source of the keplerian elements: AFSPC